Location: Beccas
(43.4309°N, 0.1528°E)
Time: 22:06:11
(UTC+00:00)

Cosmos 2344 - Pass Details

Date: 15 October 2021
Orbit: 1233 x 3009 km, 63.3° (Epoch: 29 November)

Event Time Altitude Azimuth Distance (km) Brightness Sun altitude
Rises 20:12:12 0° 323° (NW) 4,528 7.2 -32.4°
Reaches altitude 10° 20:14:48 10° 325° (NW) 3,685 6.6 -32.8°
Maximum altitude 20:24:05 78° 52° (NE) 1,917 4.2 -34.4°
Enters shadow 20:25:40 68° 109° (ESE) 2,061 4.2 -34.6°
